START_TIME,STEP,MOV.,M29,t_acc.,H22,t_acc.,H26,t_acc.,H30,t_acc.
1979-07-04 21:00:32.680 ,0,0,0.,24.0,0.,24.0,0.,24.0,0.,24.0
1979-07-04 21:00:56.680 ,0,1,0.,24.0,0.,24.0,0.,24.0,0.,24.0
1979-07-04 21:01:20.680 ,0,0,0.,24.0,0.,24.0,0.,24.0,0.,24.0
1979-07-04 21:01:44.680 ,1,1,0.,24.0,0.,24.0,0.,24.0,0.,24.0
1979-07-04 21:02:08.680 ,1,0,0.,24.0,0.,24.0,0.,24.0,0.,24.0
1979-07-04 21:02:32.680 ,2,1,0.,24.0,0.,24.0,0.,24.0,0.,24.0
1979-07-04 21:02:56.680 ,2,0,0.,24.0,0.,24.0,0.,24.0,0.,24.0
1979-07-04 21:03:20.680 ,3,1,0.,24.0,0.,24.0,0.,24.0,0.,24.0
1979-07-04 21:03:44.680 ,3,0,0.,24.0,0.,24.0,0.,24.0,0.,24.0
1979-07-04 21:04:08.680 ,4,1,0.,24.0,0.,24.0,0.,24.0,0.,24.0
1979-07-04 21:04:32.680 ,4,0,0.,24.0,0.,24.0,0.,24.0,0.,24.0
1979-07-04 21:04:56.680 ,5,1,0.,24.0,0.,24.0,0.,24.0,0.,24.0
1979-07-04 21:05:20.680 ,5,0,0.,24.0,0.,24.0,0.,24.0,0.,24.0
1979-07-04 21:05:44.680 ,6,1,0.,24.0,0.,24.0,0.,24.0,0.,24.0
1979-07-04 21:06:08.680 ,6,0,0.,24.0,0.,24.0,0.,24.0,0.,24.0
1979-07-04 21:06:32.680 ,7,0,1.,24.0,0.,24.0,0.,24.0,0.,24.0
1979-07-04 21:06:56.680 ,7,0,0.,24.0,0.,24.0,0.,24.0,0.,24.0
1979-07-04 21:07:20.680 ,5,1,0.,24.0,0.,24.0,0.,24.0,0.,24.0
1979-07-04 21:07:44.680 ,1,1,0.,24.0,0.,24.0,0.,24.0,0.,24.0
1979-07-04 21:08:08.680 ,2,1,0.,24.0,0.,24.0,0.,24.0,0.,24.0
1979-07-04 21:08:32.680 ,0,0,0.,24.0,0.,24.0,0.,24.0,0.,24.0
1979-07-04 21:09:03.280 ,0,0,0.,24.0,0.,24.0,0.,24.0,0.,24.0
1979-07-04 21:09:20.680 ,1,1,0.,24.0,0.,24.0,0.,24.0,0.,24.0
1979-07-04 21:09:44.680 ,2,1,0.,24.0,0.,24.0,0.,24.0,0.,24.0
1979-07-04 21:10:08.680 ,6,1,0.,24.0,0.,24.0,0.,24.0,0.,24.0
1979-07-04 21:10:32.680 ,5,1,0.,24.0,0.,24.0,0.,24.0,0.,24.0
1979-07-04 21:10:56.680 ,1,1,0.,24.0,0.,24.0,0.,24.0,0.,24.0
1979-07-04 21:11:20.680 ,2,1,0.,24.0,0.,24.0,0.,24.0,0.,24.0
1979-07-04 21:11:44.680 ,6,1,0.,24.0,0.,24.0,0.,24.0,0.,24.0
1979-07-04 21:12:08.680 ,5,1,0.,24.0,0.,24.0,0.,24.0,0.,24.0
1979-07-04 21:12:32.680 ,1,1,0.,24.0,0.,24.0,0.,24.0,0.,24.0
1979-07-04 21:12:56.680 ,2,1,0.,24.0,0.,24.0,0.,24.0,0.,24.0
1979-07-04 21:13:20.680 ,0,0,0.,24.0,0.,24.0,0.,24.0,0.,24.0
1979-07-04 21:13:55.480 ,0,0,,0,,0,,0,,0
1979-07-04 23:08:56.670 ,0,0,0.,24.0,0.,24.0,0.,24.0,0.,24.0
1979-07-04 23:09:20.670 ,0,0,0.,24.0,0.,24.0,0.,24.0,0.,24.0
1979-07-04 23:09:44.670 ,2,1,0.,24.0,0.,24.0,0.,24.0,0.,24.0
1979-07-04 23:10:08.670 ,2,0,0.,24.0,0.,24.0,0.,24.0,0.,24.0
1979-07-04 23:10:32.670 ,1,1,0.,24.0,0.,24.0,0.,24.0,0.,24.0
1979-07-04 23:10:56.670 ,1,0,0.,24.0,0.,24.0,0.,24.0,0.,24.0
1979-07-04 23:11:20.670 ,0,1,0.,24.0,0.,24.0,0.,24.0,0.,24.0
1979-07-04 23:11:44.670 ,0,0,0.,24.0,0.,24.0,0.,24.0,0.,24.0
1979-07-04 23:12:08.670 ,0,1,0.,24.0,0.,24.0,0.,24.0,0.,24.0
1979-07-04 23:12:32.670 ,0,0,0.,24.0,0.,24.0,0.,24.0,0.,24.0
1979-07-04 23:12:56.670 ,1,1,0.,24.0,0.,24.0,0.,24.0,0.,24.0
1979-07-04 23:13:20.670 ,1,0,1.,24.0,0.,24.0,0.,24.0,0.,24.0
1979-07-04 23:13:44.670 ,2,1,0.,24.0,0.,24.0,0.,24.0,0.,24.0
1979-07-04 23:14:08.670 ,2,0,0.,24.0,0.,24.0,0.,24.0,0.,24.0
1979-07-04 23:14:32.670 ,3,1,0.,24.0,0.,24.0,0.,24.0,0.,24.0
1979-07-04 23:14:56.670 ,3,0,0.,24.0,0.,24.0,0.,24.0,0.,24.0
1979-07-04 23:15:20.670 ,4,1,0.,24.0,0.,24.0,0.,24.0,0.,24.0
1979-07-04 23:15:44.670 ,4,0,0.,24.0,0.,24.0,0.,24.0,0.,24.0
1979-07-04 23:16:08.670 ,5,1,0.,24.0,0.,24.0,0.,24.0,0.,24.0
1979-07-04 23:16:32.670 ,5,0,0.,24.0,0.,24.0,0.,24.0,0.,24.0
1979-07-04 23:16:56.670 ,6,1,0.,24.0,0.,24.0,0.,24.0,0.,24.0
1979-07-04 23:17:20.670 ,6,0,0.,24.0,0.,24.0,0.,24.0,0.,24.0
1979-07-04 23:17:44.670 ,7,1,0.,24.0,0.,24.0,0.,24.0,0.,24.0
1979-07-04 23:18:08.670 ,7,0,0.,24.0,0.,24.0,0.,24.0,0.,24.0
1979-07-04 23:18:32.670 ,7,1,0.,24.0,0.,24.0,0.,24.0,0.,24.0
1979-07-04 23:18:56.670 ,7,0,0.,24.0,0.,24.0,0.,24.0,0.,24.0
1979-07-04 23:19:20.670 ,6,1,0.,24.0,0.,24.0,0.,24.0,0.,24.0
1979-07-04 23:19:44.670 ,6,0,1.,24.0,0.,24.0,0.,24.0,0.,24.0
1979-07-04 23:20:08.670 ,5,1,0.,24.0,0.,24.0,0.,24.0,0.,24.0
1979-07-04 23:20:32.670 ,5,0,0.,24.0,0.,24.0,0.,24.0,0.,24.0
1979-07-04 23:20:56.670 ,4,1,0.,24.0,0.,24.0,0.,24.0,0.,24.0
1979-07-04 23:21:20.670 ,4,0,0.,24.0,0.,24.0,0.,24.0,0.,24.0
1979-07-04 23:21:44.670 ,3,1,0.,24.0,0.,24.0,0.,24.0,0.,24.0
1979-07-04 23:22:08.670 ,3,0,0.,24.0,0.,24.0,0.,24.0,0.,24.0
1979-07-04 23:22:32.670 ,2,1,0.,24.0,0.,24.0,0.,24.0,0.,24.0
1979-07-04 23:22:56.670 ,2,0,0.,24.0,0.,24.0,0.,24.0,0.,24.0
1979-07-04 23:23:20.670 ,1,1,0.,24.0,0.,24.0,0.,24.0,0.,24.0
1979-07-04 23:23:44.670 ,1,0,0.,24.0,0.,24.0,0.,24.0,0.,24.0
1979-07-04 23:24:08.670 ,0,1,0.,24.0,0.,24.0,0.,24.0,0.,24.0
1979-07-04 23:24:32.670 ,0,0,0.,24.0,0.,24.0,0.,24.0,0.,24.0
1979-07-04 23:24:56.670 ,0,1,1.,24.0,0.,24.0,0.,24.0,0.,24.0
1979-07-04 23:25:20.670 ,0,0,0.,24.0,0.,24.0,0.,24.0,0.,24.0
1979-07-04 23:25:44.670 ,1,1,0.,24.0,0.,24.0,0.,24.0,0.,24.0
1979-07-04 23:26:08.670 ,1,0,0.,24.0,0.,24.0,0.,24.0,0.,24.0
1979-07-04 23:26:32.670 ,2,1,0.,24.0,0.,24.0,0.,24.0,0.,24.0
1979-07-04 23:26:56.670 ,2,0,0.,24.0,0.,24.0,0.,24.0,0.,24.0
1979-07-04 23:27:20.670 ,3,1,0.,24.0,0.,24.0,0.,24.0,0.,24.0
1979-07-04 23:27:44.670 ,3,0,0.,24.0,0.,24.0,0.,24.0,0.,24.0
1979-07-04 23:28:08.670 ,4,1,0.,24.0,0.,24.0,0.,24.0,0.,24.0
1979-07-04 23:28:32.670 ,4,0,0.,24.0,0.,24.0,0.,24.0,0.,24.0
1979-07-04 23:28:56.670 ,5,1,0.,24.0,0.,24.0,0.,24.0,0.,24.0
1979-07-04 23:29:20.670 ,5,0,0.,24.0,0.,24.0,0.,24.0,0.,24.0
1979-07-04 23:29:44.670 ,6,1,0.,24.0,0.,24.0,0.,24.0,0.,24.0
1979-07-04 23:30:08.670 ,6,0,1.,24.0,0.,24.0,0.,24.0,0.,24.0
1979-07-04 23:30:32.670 ,7,0,0.,24.0,0.,24.0,0.,24.0,0.,24.0
1979-07-04 23:30:56.670 ,7,0,0.,24.0,0.,24.0,0.,24.0,0.,24.0
1979-07-04 23:31:20.670 ,5,1,0.,24.0,0.,24.0,0.,24.0,0.,24.0
1979-07-04 23:31:44.670 ,1,1,0.,24.0,0.,24.0,0.,24.0,0.,24.0
1979-07-04 23:32:08.670 ,2,1,0.,24.0,0.,24.0,0.,24.0,0.,24.0
1979-07-04 23:32:32.670 ,6,1,0.,24.0,0.,24.0,0.,24.0,0.,24.0
1979-07-04 23:32:56.670 ,5,1,0.,24.0,0.,24.0,0.,24.0,0.,24.0
1979-07-04 23:33:20.670 ,1,1,0.,24.0,0.,24.0,0.,24.0,0.,24.0
1979-07-04 23:33:44.670 ,2,1,0.,24.0,0.,24.0,0.,24.0,0.,24.0
1979-07-04 23:34:08.670 ,6,1,0.,24.0,0.,24.0,0.,24.0,0.,24.0
1979-07-04 23:34:32.670 ,5,1,0.,24.0,0.,24.0,0.,24.0,0.,24.0
1979-07-04 23:34:56.670 ,1,1,0.,24.0,0.,24.0,0.,24.0,0.,24.0
1979-07-04 23:35:20.670 ,2,1,0.,24.0,0.,24.0,0.,24.0,0.,24.0
1979-07-04 23:35:44.670 ,6,1,0.,24.0,0.,24.0,0.,24.0,0.,24.0
1979-07-04 23:36:08.670 ,5,1,0.,24.0,0.,24.0,0.,24.0,0.,24.0
1979-07-04 23:36:32.670 ,1,1,0.,24.0,0.,24.0,0.,24.0,0.,24.0
1979-07-04 23:36:56.670 ,2,1,0.,24.0,0.,24.0,0.,24.0,0.,24.0
1979-07-04 23:37:20.670 ,6,1,0.,24.0,0.,24.0,0.,24.0,0.,24.0
1979-07-04 23:37:44.670 ,5,1,0.,24.0,0.,24.0,0.,24.0,0.,24.0
1979-07-04 23:38:08.670 ,1,1,0.,24.0,0.,24.0,0.,24.0,0.,24.0
1979-07-04 23:38:32.670 ,2,1,0.,24.0,0.,24.0,0.,24.0,0.,24.0
1979-07-04 23:38:56.670 ,6,1,0.,24.0,0.,24.0,0.,24.0,0.,24.0
1979-07-04 23:39:20.670 ,5,1,0.,24.0,0.,24.0,0.,24.0,0.,24.0
1979-07-04 23:39:44.670 ,1,1,0.,24.0,0.,24.0,0.,24.0,0.,24.0
1979-07-04 23:40:08.670 ,2,1,0.,24.0,0.,24.0,0.,24.0,0.,24.0
1979-07-04 23:40:32.670 ,6,1,0.,24.0,0.,24.0,0.,24.0,0.,24.0
1979-07-04 23:40:56.670 ,5,1,0.,24.0,0.,24.0,0.,24.0,0.,24.0
1979-07-04 23:41:20.670 ,1,1,0.,24.0,0.,24.0,0.,24.0,0.,24.0
1979-07-04 23:41:44.670 ,0,0,0.,24.0,0.,24.0,0.,24.0,0.,24.0
1979-07-04 23:42:08.670 ,0,0,0.,24.0,0.,24.0,0.,24.0,0.,24.0
1979-07-04 23:42:32.670 ,5,1,0.,24.0,0.,24.0,0.,24.0,0.,24.0
1979-07-04 23:42:56.670 ,5,0,0.,24.0,0.,24.0,0.,24.0,0.,24.0
1979-07-04 23:43:20.670 ,4,1,0.,24.0,0.,24.0,0.,24.0,0.,24.0
1979-07-04 23:43:44.670 ,4,0,0.,24.0,0.,24.0,0.,24.0,0.,24.0
1979-07-04 23:44:08.670 ,3,1,0.,24.0,0.,24.0,0.,24.0,0.,24.0
1979-07-04 23:44:32.670 ,3,0,0.,24.0,0.,24.0,0.,24.0,0.,24.0
1979-07-04 23:44:56.670 ,2,1,0.,24.0,0.,24.0,0.,24.0,0.,24.0
1979-07-04 23:45:20.670 ,2,0,0.,24.0,0.,24.0,0.,24.0,0.,24.0
1979-07-04 23:45:44.670 ,1,1,0.,24.0,0.,24.0,0.,24.0,0.,24.0
1979-07-04 23:46:08.670 ,1,0,0.,24.0,0.,24.0,0.,24.0,0.,24.0
1979-07-04 23:46:32.670 ,0,1,0.,24.0,0.,24.0,0.,24.0,0.,24.0
1979-07-04 23:46:56.670 ,0,0,0.,24.0,0.,24.0,0.,24.0,0.,24.0
1979-07-04 23:47:20.670 ,0,1,0.,24.0,0.,24.0,0.,24.0,0.,24.0
1979-07-04 23:47:44.670 ,0,0,0.,24.0,0.,24.0,0.,24.0,0.,24.0
1979-07-04 23:48:08.670 ,1,1,0.,24.0,0.,24.0,0.,24.0,0.,24.0
1979-07-04 23:48:32.670 ,1,0,0.,24.0,0.,24.0,0.,24.0,0.,24.0
1979-07-04 23:48:56.670 ,2,1,0.,24.0,0.,24.0,0.,24.0,0.,24.0
1979-07-04 23:49:20.670 ,2,0,0.,24.0,0.,24.0,0.,24.0,0.,24.0
1979-07-04 23:49:44.670 ,3,1,0.,24.0,0.,24.0,0.,24.0,0.,24.0
1979-07-04 23:50:08.670 ,3,0,0.,24.0,0.,24.0,0.,24.0,0.,24.0
1979-07-04 23:50:32.670 ,4,1,1.,24.0,0.,24.0,0.,24.0,0.,24.0
1979-07-04 23:50:56.670 ,4,0,0.,24.0,0.,24.0,0.,24.0,0.,24.0
1979-07-04 23:51:20.670 ,5,1,0.,24.0,0.,24.0,0.,24.0,0.,24.0
1979-07-04 23:51:44.670 ,5,0,0.,24.0,0.,24.0,0.,24.0,0.,24.0
1979-07-04 23:52:08.670 ,6,1,0.,24.0,0.,24.0,0.,24.0,0.,24.0
1979-07-04 23:52:32.670 ,6,0,0.,24.0,0.,24.0,0.,24.0,0.,24.0
1979-07-04 23:52:56.670 ,7,1,0.,24.0,0.,24.0,0.,24.0,0.,24.0
1979-07-04 23:53:20.670 ,7,0,0.,24.0,0.,24.0,0.,24.0,0.,24.0
1979-07-04 23:53:44.670 ,7,1,0.,24.0,0.,24.0,0.,24.0,0.,24.0
1979-07-04 23:54:08.670 ,7,0,0.,24.0,0.,24.0,0.,24.0,0.,24.0
1979-07-04 23:54:32.670 ,6,1,0.,24.0,0.,24.0,0.,24.0,0.,24.0
1979-07-04 23:54:56.670 ,6,0,0.,24.0,0.,24.0,0.,24.0,0.,24.0
1979-07-04 23:55:20.670 ,5,1,0.,24.0,0.,24.0,0.,24.0,0.,24.0
1979-07-04 23:55:44.670 ,5,0,0.,24.0,0.,24.0,0.,24.0,0.,24.0
1979-07-04 23:56:08.670 ,4,1,0.,24.0,0.,24.0,0.,24.0,0.,24.0
1979-07-04 23:56:32.670 ,4,0,0.,24.0,0.,24.0,0.,24.0,0.,24.0
1979-07-04 23:56:56.670 ,3,1,0.,24.0,0.,24.0,0.,24.0,0.,24.0
1979-07-04 23:57:20.670 ,3,0,0.,24.0,0.,24.0,0.,24.0,0.,24.0
1979-07-04 23:57:44.670 ,2,1,0.,24.0,0.,24.0,0.,24.0,0.,24.0
1979-07-04 23:58:08.670 ,2,0,0.,24.0,0.,24.0,0.,24.0,0.,24.0
1979-07-04 23:58:32.670 ,1,1,0.,24.0,0.,24.0,0.,24.0,0.,24.0
1979-07-04 23:58:56.670 ,1,0,0.,24.0,0.,24.0,0.,24.0,0.,24.0
1979-07-04 23:59:20.670 ,0,1,0.,24.0,0.,24.0,0.,24.0,0.,24.0
1979-07-04 23:59:44.670 ,0,0,0.,24.0,0.,24.0,0.,24.0,0.,24.0
1979-07-05 00:00:08.670 ,0,1,0.,24.0,0.,24.0,0.,24.0,0.,24.0
